Location: Agadir Mansour Mhndou
(31.2424°N, 8.7730°W)
Time: 06:15:43
(UTC+00:00)

Cosmos 1703 - Pass Details

Date: 16 October 2021
Orbit: 521 x 539 km, 82.5° (Epoch: 28 November)

Event Time Altitude Azimuth Distance (km) Brightness Sun altitude
Rises 19:40:45 0° 347° (NNW) 2,682 7.0 -21.9°
Reaches altitude 10° 19:42:57 10° 342° (NNW) 1,784 6.2 -22.3°
Maximum altitude 19:46:45 50° 267° (W) 678 4.1 -23.1°
Drops below altitude 10° 19:50:30 10° 191° (S) 1,762 6.0 -23.9°
Sets 19:52:39 0° 186° (S) 2,643 6.8 -24.4°
